Tracking 31027 objects as of 19-Jul-2025
HD Live streaming from Space Station
objects crossing your sky now

YAOGAN-30 U

Track YAOGAN-30 U now!
10-day predictions


NORAD ID: 46807
Int'l Code: 2020-076A
Perigee: 573.3 km
Apogee: 573.9 km
Inclination: 35.0 °
Period: 96.0 minutes
Semi major axis: 6944 km
RCS: Unknown
Launch date: October 26, 2020
Source: People's Republic of China (PRC)
Launch site: Xichang Space Center, China (XSC)
Your satellite tracking list
FLOCK 3P 17
Track 1 satellite(s)




NASA's NSSDC Master Catalog

Two Line Element Set (TLE):
1 46807U 20076A   25199.79687035  .00002205  00000-0  17546-3 0  9996
2 46807  34.9951 319.6483 0000414  56.3273 303.7474 15.00139244258098
Source of the keplerian elements: AFSPC